[[{"header":{"parameterUnit":"m.s-1","parameterCategory":1,"la1":30.2991,"la2":30.254,"lo1":-89.0895,"lo2":-89.0444,"dy":0.0017,"dx":0.0017,"nx":28,"ny":28,"refTime":"2023-10-14T09:00:00:Z","depth":0,"parameterNumber":2,"parameterNumberName":"U-component_of_WINDS"},"data":[0,0,0,0,0,0,0,0,0,0,0,0,0,0,0,0,0,0,0,0,0,0,0,0,0,0,0,0,0,0,0,0,0,0,0,0,0,0,0,0,0,0,0,0,0,0,0,0,0,0,0,0,0,0,0,0,0,0,2.6114,2.6115,0,2.6144,2.6144,2.6145,2.6123,2.6122,2.6121,2.612,2.6149,2.615,2.6152,0,0,0,0,0,0,0,0,0,0,0,0,0,2.6038,2.604,2.6114,2.6115,2.6115,2.6144,2.6144,2.6145,2.6123,2.6122,2.6121,2.6119,2.6148,2.615,2.6152,0,0,0,0,0,0,0,0,0,0,0,0,0,2.607,2.604,2.6114,2.6108,2.6107,2.6144,2.6144,2.6145,2.6123,2.6122,2.612,2.6119,2.6148,2.615,2.6152,2.6197,0,0,2.616,2.6161,0,0,0,0,0,0,0,0,2.6068,2.6073,2.6108,2.6108,2.6108,2.6128,2.6128,2.6162,2.6124,2.6117,2.612,2.6118,2.6143,2.6146,2.6154,2.6198,2.6199,2.616,2.6162,2.6163,2.6164,0,0,0,0,0,0,0,2.6066,2.6071,2.6126,2.6109,2.6109,2.6103,2.6106,2.6134,2.6138,2.6118,2.6116,2.612,2.6143,2.6152,2.6155,2.62,2.616,2.6162,2.6164,2.6165,2.6282,2.6283,0,0,0,0,0,0,2.6064,2.607,2.6125,2.6127,2.6084,2.6106,2.6109,2.6123,2.6137,2.6138,2.6121,2.6119,2.6149,2.6152,2.6156,2.6209,2.6163,2.6165,2.6167,2.628,2.6282,2.6284,0,0,0,0,0,0,2.6063,2.607,2.6124,2.6098,2.6104,2.6108,2.6125,2.6124,2.6134,2.614,2.614,2.613,2.6148,2.6152,2.6187,2.6209,2.6166,2.6169,2.6278,2.6281,2.6283,2.6314,0,0,0,0,0,0,2.6061,2.6069,2.6086,2.6098,2.6106,2.6154,2.6126,2.6126,2.6138,2.6136,2.6149,2.6149,2.6147,2.6183,2.6189,2.6212,2.617,2.6276,2.6279,2.6282,2.6311,2.6317,2.6323,0,0,0,0,0,2.6058,2.6093,2.6087,2.6094,2.6127,2.6156,2.616,2.6157,2.614,2.6157,2.6161,2.6149,2.6206,2.6187,2.6194,2.6217,2.6275,2.6278,2.6282,2.6309,2.6316,2.6323,0,0,0,0,0,0,2.6082,2.6094,2.6088,2.6128,2.6141,2.6152,2.6173,2.6165,2.6182,2.6179,2.6174,2.6177,2.6213,2.6219,2.6197,2.6261,2.6238,2.6243,2.6256,2.6263,2.6269,2.6266,2.6173,0,0,0,0,0,2.6092,2.6115,2.6124,2.6159,2.6166,2.6169,2.6181,2.6178,2.6191,2.6196,2.6203,2.6216,2.6237,2.625,2.627,2.6313,2.6315,2.6332,2.6338,2.6343,2.6347,2.637,2.6378,2.6296,2.6296,2.6296,0,0,2.6112,2.6122,2.6136,2.6164,2.6173,2.6197,2.6173,2.6199,2.6216,2.62,2.6233,2.6239,2.6253,2.6292,2.6309,2.6297,2.6371,2.6347,2.6351,2.6353,2.6375,2.6382,2.6389,2.6298,2.6298,2.6297,0,0,2.6161,2.6171,2.6201,2.6212,2.6228,2.623,2.6237,2.625,2.6253,2.6287,2.6275,2.6296,2.6332,2.6343,2.6353,2.641,2.6399,2.6416,2.6446,2.6469,2.6475,2.6481,2.65,2.6507,2.6421,2.6421,2.6421,0,2.6184,2.622,2.6217,2.6244,2.6257,2.6245,2.6275,2.6285,2.6307,2.6315,2.6303,2.6349,2.6357,2.6399,2.6413,2.6422,2.643,2.6414,2.6474,2.648,2.6485,2.6504,2.6511,2.6423,2.6422,2.6422,2.6422,0,2.6247,2.6272,2.6295,2.6316,2.6331,2.636,2.6362,2.6378,2.6374,2.6377,2.6412,2.6422,2.6444,2.6454,2.645,2.6496,2.6488,2.6475,2.6451,2.6495,2.6512,2.652,2.6425,2.6425,2.6424,2.6424,0,0,2.631,2.6332,2.634,2.635,2.6367,2.6386,2.6415,2.6437,2.6451,2.6467,2.649,2.6522,2.6511,2.6523,2.652,2.654,2.6584,2.6525,2.6525,2.6535,2.6635,2.6643,2.6652,2.6578,2.6579,2.658,2.6633,0,2.6359,2.6409,2.6409,2.6454,2.6477,2.6468,2.6492,2.6506,2.6511,2.6531,2.6536,2.6559,2.6542,2.6549,2.6569,2.6574,2.6604,2.6571,2.6599,2.66,2.6594,2.6661,2.667,2.6719,2.664,2.6641,2.6642,0,2.6423,2.6442,2.649,2.6506,2.6515,2.6538,2.6559,2.6578,2.6594,2.6596,2.661,2.6605,2.6634,2.6611,2.6651,2.6629,2.6641,2.6646,2.6648,2.6649,2.6622,2.6663,2.6734,2.6741,2.6653,2.6652,2.6651,0,2.6463,2.65,2.6534,2.6544,2.6563,2.6579,2.6587,2.6602,2.6615,2.6634,2.6643,2.6665,2.6676,2.6693,2.6694,2.6678,2.6735,2.6712,2.6737,2.6737,2.6748,2.6747,2.6821,2.6758,2.6758,2.6758,2.6757,0,2.6517,2.6547,2.6553,2.6573,2.6607,2.6607,2.664,2.6647,2.6661,2.6683,2.6676,2.6696,2.6697,2.6719,2.672,2.6753,2.6758,2.6761,2.676,2.676,2.676,2.6767,2.6763,2.676,2.6759,2.6759,2.6758,0,2.6566,2.6571,2.6608,2.6624,2.6628,2.6652,2.6666,2.6686,2.6691,2.6719,2.6725,2.6733,2.6758,2.6761,2.679,2.6791,2.6831,2.6827,2.6825,2.6824,2.6849,2.6846,2.6929,2.694,2.6871,2.6871,2.6872,0,2.66,2.6623,2.6641,2.6656,2.6666,2.6689,2.6704,2.6706,2.6721,2.6742,2.6759,2.6784,2.6804,2.6844,2.6852,2.6875,2.6871,2.6899,2.6874,2.6874,2.6871,2.6869,2.6871,2.6903,2.6904,2.6904,2.6905,0,2.6659,2.6661,2.6682,2.6705,2.6723,2.6741,2.6758,2.677,2.6774,2.6792,2.6818,2.6833,2.6864,2.6888,2.6911,2.692,2.6913,2.6913,2.692,2.6919,2.6917,2.6918,2.6837,2.691,2.691,2.6909,2.6909,2.6909,2.67,2.672,2.6737,2.6761,2.6775,2.6791,2.6811,2.6819,2.6841,2.6866,2.6867,2.6895,2.6912,2.6942,2.6952,2.6975,2.6965,2.6976,2.6978,2.698,2.6982,2.6915,2.6979,2.6979,2.6979,2.6979,2.6978,0,2.6758,2.6769,2.6791,2.6816,2.6835,2.6829,2.6848,2.6864,2.689,2.6906,2.6926,2.6957,2.6981,2.6992,2.7016,2.7032,2.7029,2.7038,2.7036,2.7038,2.6989,2.698,2.704,2.704,2.704,2.704,2.704,2.704,2.679,2.6824,2.6828,2.6869,2.688,2.6908,2.6919,2.6935,2.6948,2.6982,2.7003,2.701,2.7024,2.705,2.7072,2.7075,2.7083,2.7093,2.7094,2.7048,2.7041,2.7035,2.7027,2.7095,2.7095,2.7141,2.7141,2.7142]},{"header":{"parameterUnit":"m.s-1","parameterCategory":1,"la1":30.2991,"la2":30.254,"lo1":-89.0895,"lo2":-89.0444,"dy":0.0017,"dx":0.0017,"nx":28,"ny":28,"refTime":"2023-10-14T09:00:00:Z","depth":0,"parameterNumber":3,"parameterNumberName":"V-component_of_WINDS"},"data":[0,0,0,0,0,0,0,0,0,0,0,0,0,0,0,0,0,0,0,0,0,0,0,0,0,0,0,0,0,0,0,0,0,0,0,0,0,0,0,0,0,0,0,0,0,0,0,0,0,0,0,0,0,0,0,0,0,0,-6.3191,-6.3193,0,-6.3371,-6.3373,-6.3375,-6.3325,-6.3321,-6.3318,-6.3314,-6.3492,-6.35,-6.3508,0,0,0,0,0,0,0,0,0,0,0,0,0,-6.2797,-6.2804,-6.3191,-6.3193,-6.3195,-6.3371,-6.3373,-6.3376,-6.3326,-6.3321,-6.3317,-6.3313,-6.3489,-6.3499,-6.3509,0,0,0,0,0,0,0,0,0,0,0,0,0,-6.2971,-6.2807,-6.319,-6.3192,-6.3194,-6.337,-6.3373,-6.3376,-6.3327,-6.3321,-6.3316,-6.3311,-6.3486,-6.3498,-6.351,-6.3694,0,0,-6.3547,-6.3552,0,0,0,0,0,0,0,0,-6.2961,-6.2986,-6.3189,-6.3192,-6.3194,-6.332,-6.3299,-6.3483,-6.3328,-6.3276,-6.3314,-6.3308,-6.3439,-6.3454,-6.35,-6.3702,-6.371,-6.3548,-6.3555,-6.3561,-6.3564,0,0,0,0,0,0,0,-6.2949,-6.2978,-6.3262,-6.3192,-6.3195,-6.3181,-6.32,-6.3334,-6.3385,-6.328,-6.3277,-6.3299,-6.3439,-6.3488,-6.3504,-6.3713,-6.3548,-6.3559,-6.3566,-6.3571,-6.4075,-6.4081,0,0,0,0,0,0,-6.2936,-6.2968,-6.3256,-6.3267,-6.3062,-6.3193,-6.3214,-6.3285,-6.3384,-6.3394,-6.3304,-6.3296,-6.347,-6.349,-6.351,-6.3732,-6.3561,-6.3572,-6.3579,-6.4069,-6.4076,-6.4083,0,0,0,0,0,0,-6.2928,-6.2963,-6.3249,-6.3117,-6.3152,-6.3205,-6.3286,-6.3292,-6.3341,-6.3402,-6.341,-6.3345,-6.3467,-6.3493,-6.3649,-6.3738,-6.3578,-6.3589,-6.4062,-6.4071,-6.408,-6.4179,0,0,0,0,0,0,-6.2917,-6.296,-6.3032,-6.3119,-6.316,-6.3388,-6.3291,-6.3299,-6.3363,-6.3355,-6.3443,-6.3452,-6.3464,-6.3631,-6.3661,-6.3752,-6.3598,-6.4054,-6.4066,-6.4077,-6.4168,-6.419,-6.4209,0,0,0,0,0,-6.2903,-6.3051,-6.3036,-6.3071,-6.3251,-6.3393,-6.3416,-6.3429,-6.337,-6.3442,-6.3481,-6.3449,-6.3723,-6.3648,-6.3681,-6.3776,-6.4049,-6.4063,-6.4076,-6.4159,-6.4186,-6.4209,0,0,0,0,0,0,-6.297,-6.3062,-6.3047,-6.3228,-6.3303,-6.3384,-6.3475,-6.3457,-6.3549,-6.3537,-6.3547,-6.3568,-6.3728,-6.3767,-6.3682,-6.396,-6.3877,-6.3898,-6.3928,-6.3955,-6.3975,-6.3962,-6.3608,0,0,0,0,0,-6.3007,-6.3116,-6.319,-6.3342,-6.3381,-6.3422,-6.3484,-6.3488,-6.3565,-6.3596,-6.3647,-6.3721,-6.3824,-6.3891,-6.3989,-6.4173,-6.4191,-6.4255,-6.4276,-6.4293,-6.4311,-6.4411,-6.444,-6.4128,-6.4128,-6.4128,0,0,-6.3082,-6.3146,-6.3214,-6.3358,-6.3416,-6.3528,-6.3449,-6.357,-6.3652,-6.3614,-6.3766,-6.3806,-6.3889,-6.406,-6.4138,-6.4098,-6.4401,-6.431,-6.4323,-6.4332,-6.4428,-6.4457,-6.4484,-6.4137,-6.4136,-6.4134,0,0,-6.3277,-6.3336,-6.347,-6.3532,-6.3623,-6.3649,-6.3681,-6.3766,-6.3792,-6.3945,-6.3918,-6.4015,-6.4192,-6.4253,-6.4307,-6.4525,-6.4499,-6.4557,-6.4665,-6.4763,-6.4787,-6.4809,-6.4887,-6.4915,-6.4574,-6.4575,-6.4575,0,-6.3358,-6.3527,-6.3541,-6.3665,-6.3729,-6.3702,-6.3837,-6.3894,-6.4012,-6.4055,-6.4009,-6.4232,-6.4286,-6.4471,-6.4525,-6.457,-6.4605,-6.4547,-6.4783,-6.4805,-6.4825,-6.49,-6.4929,-6.4581,-6.458,-6.458,-6.4579,0,-6.3623,-6.3741,-6.3838,-6.3955,-6.4029,-6.4158,-6.4189,-6.4262,-6.426,-6.429,-6.4446,-6.451,-6.4621,-6.4665,-6.4662,-6.485,-6.4823,-6.478,-6.4697,-6.4861,-6.4932,-6.496,-6.459,-6.4588,-6.4586,-6.4584,0,0,-6.3865,-6.3989,-6.4024,-6.4078,-6.4176,-6.4267,-6.4393,-6.4504,-6.4567,-6.4648,-6.4754,-6.4905,-6.4867,-6.4928,-6.4932,-6.5018,-6.5187,-6.4965,-6.4967,-6.5004,-6.5398,-6.543,-6.5463,-6.517,-6.5176,-6.518,-6.5391,0,-6.4068,-6.4295,-6.4311,-6.4514,-6.4623,-6.4599,-6.4709,-6.4781,-6.4813,-6.4907,-6.4941,-6.5049,-6.499,-6.5027,-6.511,-6.5149,-6.5266,-6.5134,-6.5268,-6.5272,-6.5248,-6.5499,-6.5534,-6.5729,-6.5418,-6.5423,-6.5426,0,-6.4336,-6.4429,-6.4644,-6.4729,-6.4775,-6.4874,-6.4977,-6.5069,-6.5149,-6.5166,-6.5236,-6.5228,-6.5356,-6.5269,-6.5445,-6.5354,-6.541,-6.5437,-6.5445,-6.5458,-6.5359,-6.5519,-6.5792,-6.5822,-6.547,-6.5466,-6.5463,0,-6.4491,-6.467,-6.4822,-6.4868,-6.497,-6.5041,-6.5086,-6.5161,-6.5227,-6.5316,-6.5358,-6.546,-6.5516,-6.5594,-6.5614,-6.5548,-6.579,-6.5704,-6.5806,-6.5806,-6.5858,-6.5855,-6.6144,-6.5894,-6.5893,-6.5893,-6.5892,0,-6.4717,-6.4849,-6.4893,-6.4987,-6.5135,-6.5151,-6.5295,-6.5336,-6.5403,-6.5503,-6.5487,-6.558,-6.56,-6.5697,-6.5712,-6.5856,-6.5881,-6.5897,-6.5899,-6.5899,-6.5897,-6.5935,-6.5922,-6.5901,-6.5899,-6.5897,-6.5896,0,-6.4915,-6.495,-6.5115,-6.5199,-6.5223,-6.5328,-6.5398,-6.5487,-6.5517,-6.5644,-6.5674,-6.5721,-6.5834,-6.5861,-6.5995,-6.6005,-6.6175,-6.6164,-6.615,-6.6149,-6.625,-6.624,-6.6574,-6.6619,-6.6339,-6.6342,-6.6344,0,-6.5057,-6.5159,-6.5255,-6.5322,-6.5371,-6.5479,-6.5547,-6.5566,-6.5637,-6.5736,-6.5813,-6.5925,-6.6016,-6.6197,-6.6241,-6.6344,-6.6335,-6.6445,-6.635,-6.6347,-6.6337,-6.6331,-6.6341,-6.6463,-6.6466,-6.6469,-6.6471,0,-6.5306,-6.5318,-6.5418,-6.5525,-6.5607,-6.5691,-6.5771,-6.5826,-6.5855,-6.5936,-6.6053,-6.6123,-6.6262,-6.6372,-6.6476,-6.6519,-6.65,-6.65,-6.653,-6.653,-6.6517,-6.6526,-6.6199,-6.6492,-6.649,-6.6489,-6.6488,-6.6487,-6.5481,-6.557,-6.5652,-6.5764,-6.5827,-6.5902,-6.5991,-6.6033,-6.6132,-6.6247,-6.6252,-6.6379,-6.6456,-6.6593,-6.6643,-6.6741,-6.6707,-6.675,-6.676,-6.6771,-6.678,-6.6502,-6.676,-6.6759,-6.6759,-6.6758,-6.6758,0,-6.5728,-6.578,-6.5883,-6.5997,-6.6085,-6.6061,-6.6149,-6.6223,-6.6336,-6.6411,-6.6501,-6.6635,-6.6743,-6.6796,-6.6903,-6.6971,-6.6965,-6.6998,-6.6993,-6.7004,-6.6804,-6.6769,-6.7002,-6.7002,-6.7002,-6.7001,-6.7001,-6.7001,-6.5868,-6.6019,-6.6041,-6.6223,-6.6273,-6.64,-6.6452,-6.6521,-6.658,-6.6732,-6.6823,-6.6858,-6.6923,-6.7034,-6.7132,-6.7144,-6.7184,-6.7222,-6.723,-6.7043,-6.7018,-6.6994,-6.6961,-6.7231,-6.7231,-6.7422,-6.7424,-6.7425]}]]